カタログに戻る

NIMBUS 2 DEB

LostSSO
NORAD 42437·DEBRIS·🇺🇸 United States

打ち上げ May 15, 1966 から Vandenberg Space Force Base

Loading…

次のパス (今後24時間)

TLE

古いSource: Space-Track

元期: Apr 10, 2019, 13:25 UTC

1 42437U 66040BQ  19100.55964850  .00001220  00000-0  24151-2 0  9999
2 42437 100.3270 223.3541 0048900 303.8230  55.8245 13.37148613171831

AllMySatでNIMBUS 2 DEBをリアルタイム追跡

Download on the App Store